Weather in Santa Cruz de la Sierra

Bolivia     17°47′21″S   63°11′12″W
temp.,
°C
wind,
m/s
gust,
m/s
humid.,
%
clouds,
%
prec.,
mm/h
press.,
hPa
HPBL,
m
17 april, sat
sat1723:00+23nw26780 0.0 1011135
02:00+22nw27800 0.0 1010158
05:00+21wnw23840 0.0 101084
08:00+25s11651 0.0 1013260
11:00+32nnw234438 0.1 10121747
14:00+30nnw245198 0.3 10081425
17:00+24nnw228658 2.2 100846
20:00+22w119130 3.3 101018
18 april, sun
sun1823:00+22wsw229291 0.1 101132
02:00+22sw119356 0.6 101113
05:00+21sse119580 1.3 101120
08:00+23se128913 1.3 1013192
11:00+30n235522 0.6 10121328
14:00+27w34767 5.5 1009567
17:00+26wnw23780 3.8 1008283
20:00+22wsw22921 4.1 101033
19 april, mon
mon1923:00+21sw22920 0.2 101225
02:00+21s119316 0.4 101117
05:00+20s11920 0.2 101118
08:00+21sse129321 5.9 1014161
11:00+26s23773 3.8 1013455
14:00+30w12567 5.3 10091026
17:00+28n12623 0.0 1008149
20:00+24wsw007831 0.3 101011
20 april, tue
tue2023:00+22w11889 1.1 101212
02:00+21sw11940 2.3 101113
05:00+20sw11940 0.1 101111
08:00+22wnw12890 0.1 1013141
11:00+28n33640 0.6 1012895
14:00+27n467044 1.3 1009631
17:00+26nw257848 1.3 1008267
20:00+23wnw128744 1.3 101028
21 april, wed
wed2123:00+23nw258880 0.0 1011137
02:00+21nw399722 0.3 1010239
05:00+21nw399821 0.0 1010270
08:00+22nnw4109342 0.0 1011409
11:00+28nnw696347 0.0 10101304
14:00+30nnw7105563 0.1 10061671
17:00+27nnw610680 0.0 10051168
20:00+23nw411900 0.0 1007666